Year,Month,Day,Hour,Minute,Value (Times are PST for temperature in C)
2018,01,30,00,00,6.70
2018,01,30,00,01,6.70
2018,01,30,00,02,6.70
2018,01,30,00,03,6.70
2018,01,30,00,04,6.70
2018,01,30,00,05,6.70
2018,01,30,00,06,6.70
2018,01,30,00,07,6.70
2018,01,30,00,08,6.70
2018,01,30,00,09,6.70
2018,01,30,00,10,6.60
2018,01,30,00,11,6.60
2018,01,30,00,12,6.60
2018,01,30,00,13,6.60
2018,01,30,00,14,6.60
2018,01,30,00,15,6.60
2018,01,30,00,16,6.60
2018,01,30,00,17,6.60
2018,01,30,00,18,6.60
2018,01,30,00,19,6.70
2018,01,30,00,20,6.70
2018,01,30,00,21,6.70
2018,01,30,00,22,6.70
2018,01,30,00,23,6.70
2018,01,30,00,24,6.70
2018,01,30,00,25,6.70
2018,01,30,00,26,6.70
2018,01,30,00,27,6.80
2018,01,30,00,28,6.80
2018,01,30,00,29,6.80
2018,01,30,00,30,6.90
2018,01,30,00,31,6.90
2018,01,30,00,32,7.00
2018,01,30,00,33,7.00
2018,01,30,00,34,7.00
2018,01,30,00,35,7.00
2018,01,30,00,36,7.00
2018,01,30,00,37,7.00
2018,01,30,00,38,7.00
2018,01,30,00,39,7.10
2018,01,30,00,40,7.00
2018,01,30,00,41,7.00
2018,01,30,00,42,7.00
2018,01,30,00,43,7.00
2018,01,30,00,44,7.00
2018,01,30,00,45,7.00
2018,01,30,00,46,7.00
2018,01,30,00,47,7.10
2018,01,30,00,48,7.10
2018,01,30,00,49,7.10
2018,01,30,00,50,7.10
2018,01,30,00,51,7.10
2018,01,30,00,52,7.10
2018,01,30,00,53,7.10
2018,01,30,00,54,7.10
2018,01,30,00,55,7.10
2018,01,30,00,56,7.10
2018,01,30,00,57,7.10
2018,01,30,00,58,7.10
2018,01,30,00,59,7.10
2018,01,30,01,00,7.00
2018,01,30,01,01,7.00
2018,01,30,01,02,7.00
2018,01,30,01,03,6.90
2018,01,30,01,05,6.90
2018,01,30,01,07,6.90
2018,01,30,05,23,5.50
2018,01,30,05,24,5.50
2018,01,30,05,25,5.40
2018,01,30,05,26,5.40
2018,01,30,05,27,5.40
2018,01,30,05,28,5.40
2018,01,30,05,29,5.40
2018,01,30,05,30,5.40
2018,01,30,05,31,5.40
2018,01,30,05,32,5.30
2018,01,30,05,33,5.30
2018,01,30,05,34,5.30
2018,01,30,05,35,5.30
2018,01,30,05,36,5.30
2018,01,30,05,37,5.30
2018,01,30,05,38,5.30
2018,01,30,05,39,5.30
2018,01,30,05,40,5.30
2018,01,30,05,41,5.30
2018,01,30,05,42,5.30
2018,01,30,05,43,5.30
2018,01,30,05,44,5.30
2018,01,30,05,45,5.30
2018,01,30,05,46,5.30
2018,01,30,05,47,5.30
2018,01,30,05,48,5.30
2018,01,30,05,49,5.30
2018,01,30,05,50,5.30
2018,01,30,05,51,5.30
2018,01,30,05,52,5.30
2018,01,30,05,53,5.30
2018,01,30,05,54,5.30
2018,01,30,05,55,5.30
2018,01,30,05,56,5.30
2018,01,30,05,57,5.30
2018,01,30,05,58,5.30
2018,01,30,05,59,5.40
2018,01,30,06,00,5.40
2018,01,30,06,01,5.50
2018,01,30,06,02,5.60
2018,01,30,06,03,5.60
2018,01,30,06,04,5.70
2018,01,30,06,05,5.70
2018,01,30,06,06,5.70
2018,01,30,06,07,5.70
2018,01,30,06,08,5.80
2018,01,30,06,09,5.80
2018,01,30,06,10,5.80
2018,01,30,06,11,5.80
2018,01,30,06,12,5.90
2018,01,30,06,13,5.90
2018,01,30,06,14,6.00
2018,01,30,06,15,6.00
2018,01,30,06,16,6.00
2018,01,30,06,17,6.00
2018,01,30,06,18,6.00
2018,01,30,06,19,6.00
2018,01,30,06,20,6.10
2018,01,30,06,21,6.20
2018,01,30,06,22,6.20
2018,01,30,06,23,6.10
2018,01,30,06,24,6.10
2018,01,30,06,25,6.10
2018,01,30,06,26,6.00
2018,01,30,06,27,5.90
2018,01,30,06,28,5.90
2018,01,30,06,29,5.80
2018,01,30,06,30,5.80
2018,01,30,06,31,5.70
2018,01,30,06,32,5.70
2018,01,30,06,33,5.60
2018,01,30,06,34,5.50
2018,01,30,06,35,5.50
2018,01,30,06,36,5.40
2018,01,30,06,37,5.40
2018,01,30,06,38,5.40
2018,01,30,06,39,5.30
2018,01,30,06,40,5.30
2018,01,30,06,41,5.30
2018,01,30,06,42,5.20
2018,01,30,06,43,5.20
2018,01,30,06,44,5.20
2018,01,30,06,45,5.10
2018,01,30,06,46,5.10
2018,01,30,06,47,5.10
2018,01,30,06,48,5.00
2018,01,30,06,49,5.00
2018,01,30,06,50,4.90
2018,01,30,06,51,4.90
2018,01,30,06,52,4.90
2018,01,30,06,53,4.90
2018,01,30,06,54,4.80
2018,01,30,06,55,4.80
2018,01,30,06,56,4.80
2018,01,30,06,57,4.80
2018,01,30,06,58,4.80
2018,01,30,06,59,4.80
2018,01,30,07,00,4.80
2018,01,30,07,01,4.70
2018,01,30,07,02,4.70
2018,01,30,07,03,4.70
2018,01,30,07,04,4.70
2018,01,30,07,05,4.70
2018,01,30,07,06,4.70
2018,01,30,07,07,4.70
2018,01,30,07,08,4.60
2018,01,30,07,09,4.60
2018,01,30,07,10,4.60
2018,01,30,07,11,4.60
2018,01,30,07,12,4.60
2018,01,30,07,13,4.60
2018,01,30,07,14,4.60
2018,01,30,07,15,4.60
2018,01,30,07,16,4.60
2018,01,30,07,17,4.60
2018,01,30,07,18,4.60
2018,01,30,07,19,4.60
2018,01,30,07,20,4.60
2018,01,30,07,21,4.60
2018,01,30,07,22,4.60
2018,01,30,07,23,4.60
2018,01,30,07,24,4.60
2018,01,30,07,25,4.60
2018,01,30,07,26,4.60
2018,01,30,07,27,4.60
2018,01,30,07,28,4.60
2018,01,30,07,29,4.70
2018,01,30,07,30,4.70
2018,01,30,07,31,4.70
2018,01,30,07,32,4.70
2018,01,30,07,33,4.70
2018,01,30,07,34,4.70
2018,01,30,07,35,4.70
2018,01,30,07,36,4.70
2018,01,30,07,37,4.80
2018,01,30,07,38,4.80
2018,01,30,07,39,4.80
2018,01,30,07,40,4.70
2018,01,30,07,41,4.70
2018,01,30,07,42,4.70
2018,01,30,07,43,4.70
2018,01,30,07,44,4.70
2018,01,30,07,45,4.70
2018,01,30,07,46,4.70
2018,01,30,07,47,4.70
2018,01,30,07,48,4.60
2018,01,30,07,49,4.60
2018,01,30,07,50,4.60
2018,01,30,07,51,4.60
2018,01,30,07,52,4.60
2018,01,30,07,53,4.60
2018,01,30,07,54,4.60
2018,01,30,07,55,4.50
2018,01,30,07,56,4.50
2018,01,30,07,57,4.50
2018,01,30,07,58,4.50
2018,01,30,07,59,4.50
2018,01,30,08,00,4.60
2018,01,30,08,01,4.60
2018,01,30,08,02,4.50
2018,01,30,08,03,4.50
2018,01,30,08,04,4.50
2018,01,30,08,05,4.50
2018,01,30,08,06,4.50
2018,01,30,08,07,4.50
2018,01,30,08,08,4.50
2018,01,30,08,09,4.50
2018,01,30,08,10,4.50
2018,01,30,08,11,4.50
2018,01,30,08,12,4.50
2018,01,30,08,13,4.40
2018,01,30,08,14,4.40
2018,01,30,08,15,4.40
2018,01,30,08,16,4.40
2018,01,30,08,17,4.50
2018,01,30,08,18,4.50
2018,01,30,08,19,4.50
2018,01,30,08,20,4.50
2018,01,30,08,21,4.50
2018,01,30,08,22,4.50
2018,01,30,08,23,4.50
2018,01,30,08,24,4.50
2018,01,30,08,25,4.50
2018,01,30,08,26,4.50
2018,01,30,08,27,4.50
2018,01,30,08,28,4.60
2018,01,30,08,29,4.50
2018,01,30,08,30,4.50
2018,01,30,08,31,4.50
2018,01,30,08,32,4.60
2018,01,30,08,33,4.60
2018,01,30,08,34,4.60
2018,01,30,08,35,4.60
2018,01,30,08,36,4.60
2018,01,30,08,37,4.60
2018,01,30,08,38,4.60
2018,01,30,08,39,4.60
2018,01,30,08,40,4.60
2018,01,30,08,41,4.60
2018,01,30,08,42,4.60
2018,01,30,08,43,4.70
2018,01,30,08,44,4.70
2018,01,30,08,45,4.70
2018,01,30,08,46,4.70
2018,01,30,08,47,4.70
2018,01,30,08,48,4.70
2018,01,30,08,49,4.70
2018,01,30,08,50,4.70
2018,01,30,08,51,4.80
2018,01,30,08,52,4.80
2018,01,30,08,53,4.80
2018,01,30,08,54,4.80
2018,01,30,08,55,4.80
2018,01,30,08,56,4.80
2018,01,30,08,57,4.90
2018,01,30,08,58,4.90
2018,01,30,08,59,5.00
2018,01,30,09,00,5.00
2018,01,30,09,01,5.00
2018,01,30,09,02,5.10
2018,01,30,09,03,5.10
2018,01,30,09,04,5.10
2018,01,30,09,05,5.10
2018,01,30,09,06,5.10
2018,01,30,09,07,5.10
2018,01,30,09,08,5.10
2018,01,30,09,09,5.10
2018,01,30,09,10,5.10
2018,01,30,09,11,5.20
2018,01,30,09,12,5.20
2018,01,30,09,13,5.20
2018,01,30,09,14,5.20
2018,01,30,09,15,5.20
2018,01,30,09,16,5.20
2018,01,30,09,17,5.20
2018,01,30,09,18,5.20
2018,01,30,09,19,5.30
2018,01,30,09,20,5.30
2018,01,30,09,21,5.30
2018,01,30,09,22,5.30
2018,01,30,09,23,5.40
2018,01,30,09,24,5.40
2018,01,30,09,25,5.50
2018,01,30,09,26,5.50
2018,01,30,09,27,5.50
2018,01,30,09,28,5.50
2018,01,30,09,29,5.50
2018,01,30,09,30,5.50
2018,01,30,09,31,5.50
2018,01,30,09,32,5.50
2018,01,30,09,33,5.60
2018,01,30,09,34,5.60
2018,01,30,09,35,5.50
2018,01,30,09,36,5.60
2018,01,30,09,37,5.60
2018,01,30,09,38,5.60
2018,01,30,09,39,5.60
2018,01,30,09,40,5.60
2018,01,30,09,41,5.60
2018,01,30,09,42,5.60
2018,01,30,09,43,5.70
2018,01,30,09,44,5.70
2018,01,30,09,45,5.70
2018,01,30,09,46,5.70
2018,01,30,09,47,5.70
2018,01,30,09,48,5.70
2018,01,30,09,49,5.70
2018,01,30,09,50,5.70
2018,01,30,09,51,5.70
2018,01,30,09,52,5.70
2018,01,30,09,53,5.80
2018,01,30,09,54,5.80
2018,01,30,09,55,5.80
2018,01,30,09,56,5.80
2018,01,30,09,57,5.80
2018,01,30,09,58,5.80
2018,01,30,09,59,5.80
2018,01,30,10,00,5.80
2018,01,30,10,01,5.80
2018,01,30,10,02,5.90
2018,01,30,10,03,5.90
2018,01,30,10,04,5.90
2018,01,30,10,05,5.90
2018,01,30,10,06,5.90
2018,01,30,10,07,6.00
2018,01,30,10,08,6.00
2018,01,30,10,09,6.00
2018,01,30,10,10,6.00
2018,01,30,10,11,6.10
2018,01,30,10,12,6.10
2018,01,30,10,13,6.10
2018,01,30,10,14,6.10
2018,01,30,10,15,6.10
2018,01,30,10,16,6.20
2018,01,30,10,17,6.20
2018,01,30,10,18,6.20
2018,01,30,10,19,6.20
2018,01,30,10,20,6.20
2018,01,30,10,21,6.30
2018,01,30,10,22,6.30
2018,01,30,10,23,6.30
2018,01,30,10,24,6.30
2018,01,30,10,25,6.30
2018,01,30,10,26,6.30
2018,01,30,10,27,6.30
2018,01,30,10,28,6.40
2018,01,30,10,29,6.40
2018,01,30,10,30,6.40
2018,01,30,10,31,6.40
2018,01,30,10,32,6.40
2018,01,30,10,33,6.40
2018,01,30,10,34,6.40
2018,01,30,10,35,6.40
2018,01,30,10,36,6.40
2018,01,30,10,37,6.50
2018,01,30,10,38,6.50
2018,01,30,10,39,6.50
2018,01,30,10,40,6.50
2018,01,30,10,41,6.60
2018,01,30,10,42,6.60
2018,01,30,10,43,6.60
2018,01,30,10,44,6.60
2018,01,30,10,45,6.60
2018,01,30,10,46,6.70
2018,01,30,10,47,6.70
2018,01,30,10,48,6.70
2018,01,30,10,49,6.80
2018,01,30,10,50,6.80
2018,01,30,10,51,6.90
2018,01,30,10,52,6.90
2018,01,30,10,53,6.90
2018,01,30,10,54,7.00
2018,01,30,10,55,7.00
2018,01,30,10,56,7.10
2018,01,30,10,57,7.10
2018,01,30,10,58,7.10
2018,01,30,10,59,7.10
2018,01,30,11,00,7.10
2018,01,30,11,01,7.10
2018,01,30,11,02,7.10
2018,01,30,11,03,7.20
2018,01,30,11,04,7.20
2018,01,30,11,05,7.20
2018,01,30,11,06,7.30
2018,01,30,11,07,7.30
2018,01,30,11,08,7.40
2018,01,30,11,09,7.40
2018,01,30,11,10,7.50
2018,01,30,11,11,7.50
2018,01,30,11,12,7.50
2018,01,30,11,13,7.50
2018,01,30,11,14,7.50
2018,01,30,11,15,7.50
2018,01,30,11,16,7.50
2018,01,30,11,17,7.40
2018,01,30,11,18,7.30
2018,01,30,11,19,7.30
2018,01,30,11,20,7.20
2018,01,30,11,21,7.20
2018,01,30,11,22,7.20
2018,01,30,11,23,7.20
2018,01,30,11,24,7.20
2018,01,30,11,25,7.20
2018,01,30,11,26,7.10
2018,01,30,11,27,7.10
2018,01,30,11,28,7.00
2018,01,30,11,29,6.90
2018,01,30,11,30,6.90
2018,01,30,11,31,6.90
2018,01,30,11,32,6.80
2018,01,30,11,33,6.80
2018,01,30,11,34,6.80
2018,01,30,11,35,6.80
2018,01,30,11,36,6.80
2018,01,30,11,37,6.80
2018,01,30,11,38,6.80
2018,01,30,11,39,6.80
2018,01,30,11,40,6.80
2018,01,30,11,41,6.80
2018,01,30,11,42,6.80
2018,01,30,11,43,6.80
2018,01,30,11,44,6.80
2018,01,30,11,45,6.80
2018,01,30,11,46,6.70
2018,01,30,11,47,6.60
2018,01,30,11,48,6.50
2018,01,30,11,49,6.40
2018,01,30,11,50,6.30
2018,01,30,11,51,6.30
2018,01,30,11,52,6.20
2018,01,30,11,53,6.20
2018,01,30,11,54,6.20
2018,01,30,11,55,6.20
2018,01,30,11,56,6.20
2018,01,30,11,57,6.20
2018,01,30,11,58,6.20
2018,01,30,11,59,6.20
2018,01,30,12,00,6.20
2018,01,30,12,01,6.20
2018,01,30,12,02,6.30
2018,01,30,12,03,6.30
2018,01,30,12,04,6.30
2018,01,30,12,05,6.30
2018,01,30,12,06,6.40
2018,01,30,12,07,6.40
2018,01,30,12,08,6.50
2018,01,30,12,09,6.50
2018,01,30,12,10,6.60
2018,01,30,12,11,6.70
2018,01,30,12,12,6.80
2018,01,30,12,13,6.80
2018,01,30,12,14,6.90
2018,01,30,12,15,6.90
2018,01,30,12,16,7.00
2018,01,30,12,17,7.00
2018,01,30,12,18,7.10
2018,01,30,12,19,7.10
2018,01,30,12,20,7.10
2018,01,30,12,21,7.20
2018,01,30,12,22,7.10
2018,01,30,12,23,7.10
2018,01,30,12,24,7.00
2018,01,30,12,25,6.80
2018,01,30,12,26,6.70
2018,01,30,12,27,6.70
2018,01,30,12,28,6.60
2018,01,30,12,29,6.50
2018,01,30,12,30,6.40
2018,01,30,12,31,6.30
2018,01,30,12,32,6.20
2018,01,30,12,33,6.20
2018,01,30,12,34,6.20
2018,01,30,12,35,6.20
2018,01,30,12,36,6.20
2018,01,30,12,37,6.20
2018,01,30,12,38,6.20
2018,01,30,12,39,6.30
2018,01,30,12,40,6.30
2018,01,30,12,41,6.40
2018,01,30,12,42,6.50
2018,01,30,12,43,6.60
2018,01,30,12,44,6.60
2018,01,30,12,45,6.70
2018,01,30,12,46,6.80
2018,01,30,12,47,6.80
2018,01,30,12,48,6.90
2018,01,30,12,49,6.90
2018,01,30,12,50,6.90
2018,01,30,12,51,6.90
2018,01,30,12,52,7.00
2018,01,30,12,53,7.00
2018,01,30,12,54,7.10
2018,01,30,12,55,7.10
2018,01,30,12,56,7.20
2018,01,30,12,57,7.20
2018,01,30,12,58,7.30
2018,01,30,12,59,7.30
2018,01,30,13,00,7.30
2018,01,30,13,01,7.30
2018,01,30,13,02,7.30
2018,01,30,13,03,7.40
2018,01,30,13,04,7.40
2018,01,30,13,05,7.40
2018,01,30,13,06,7.40
2018,01,30,13,07,7.40
2018,01,30,13,08,7.40
2018,01,30,13,09,7.40
2018,01,30,13,10,7.50
2018,01,30,13,11,7.50
2018,01,30,13,12,7.40
2018,01,30,13,13,7.40
2018,01,30,13,14,7.40
2018,01,30,13,15,7.40
2018,01,30,13,16,7.40
2018,01,30,13,17,7.40
2018,01,30,13,18,7.40
2018,01,30,13,19,7.30
2018,01,30,13,20,7.30
2018,01,30,13,21,7.30
2018,01,30,13,22,7.30
2018,01,30,13,23,7.30
2018,01,30,13,24,7.30
2018,01,30,13,25,7.30
2018,01,30,13,26,7.30
2018,01,30,13,27,7.30
2018,01,30,13,28,7.30
2018,01,30,13,29,7.30
2018,01,30,13,30,7.30
2018,01,30,13,31,7.30
2018,01,30,13,32,7.30
2018,01,30,13,33,7.30
2018,01,30,13,34,7.30
2018,01,30,13,35,7.30
2018,01,30,13,36,7.30
2018,01,30,13,37,7.30
2018,01,30,13,38,7.30
2018,01,30,13,39,7.20
2018,01,30,13,40,7.20
2018,01,30,13,41,7.20
2018,01,30,13,42,7.10
2018,01,30,13,43,7.00
2018,01,30,13,44,6.90
2018,01,30,13,45,6.60
2018,01,30,13,46,6.20
2018,01,30,13,47,5.90
2018,01,30,13,48,5.70
2018,01,30,13,49,5.60
2018,01,30,13,50,5.40
2018,01,30,13,51,5.30
2018,01,30,13,52,5.20
2018,01,30,13,53,5.10
2018,01,30,13,54,5.10
2018,01,30,13,55,5.00
2018,01,30,13,56,5.00
2018,01,30,13,57,5.10
2018,01,30,13,58,5.10
2018,01,30,13,59,5.10
2018,01,30,14,00,5.10
2018,01,30,14,01,5.10
2018,01,30,14,02,5.20
2018,01,30,14,03,5.20
2018,01,30,14,04,5.30
2018,01,30,14,05,5.30
2018,01,30,14,06,5.40
2018,01,30,14,07,5.40
2018,01,30,14,08,5.50
2018,01,30,14,09,5.60
2018,01,30,14,10,5.70
2018,01,30,14,11,5.70
2018,01,30,14,12,5.80
2018,01,30,14,13,5.90
2018,01,30,14,14,6.00
2018,01,30,14,15,6.00
2018,01,30,14,16,6.20
2018,01,30,14,17,6.20
2018,01,30,14,18,6.30
2018,01,30,14,19,6.40
2018,01,30,14,20,6.50
2018,01,30,14,21,6.60
2018,01,30,14,22,6.60
2018,01,30,14,23,6.70
2018,01,30,14,24,6.70
2018,01,30,14,25,6.70
2018,01,30,14,26,6.70
2018,01,30,14,27,6.70
2018,01,30,14,28,6.70
2018,01,30,14,29,6.70
2018,01,30,14,30,6.70
2018,01,30,14,31,6.80
2018,01,30,14,32,6.80
2018,01,30,14,33,6.80
2018,01,30,14,34,6.80
2018,01,30,14,35,6.80
2018,01,30,14,36,6.80
2018,01,30,14,37,6.80
2018,01,30,14,38,6.90
2018,01,30,14,39,6.90
2018,01,30,14,40,6.90
2018,01,30,14,41,6.90
2018,01,30,14,42,6.90
2018,01,30,14,43,6.80
2018,01,30,14,44,6.70
2018,01,30,14,45,6.60
2018,01,30,14,46,6.40
2018,01,30,14,47,6.30
2018,01,30,14,48,6.10
2018,01,30,14,49,5.90
2018,01,30,14,50,5.80
2018,01,30,14,51,5.70
2018,01,30,14,52,5.50
2018,01,30,14,53,5.40
2018,01,30,14,54,5.30
2018,01,30,14,55,5.30
2018,01,30,14,56,5.20
2018,01,30,14,57,5.10
2018,01,30,14,58,5.10
2018,01,30,14,59,5.10
2018,01,30,15,00,5.20
2018,01,30,15,01,5.20
2018,01,30,15,02,5.20
2018,01,30,15,03,5.20
2018,01,30,15,04,5.30
2018,01,30,15,05,5.30
2018,01,30,15,06,5.40
2018,01,30,15,07,5.40
2018,01,30,15,08,5.50
2018,01,30,15,09,5.60
2018,01,30,15,10,5.70
2018,01,30,15,11,5.80
2018,01,30,15,12,5.80
2018,01,30,15,13,5.90
2018,01,30,15,14,5.90
2018,01,30,15,15,6.00
2018,01,30,15,16,6.10
2018,01,30,15,17,6.20
2018,01,30,15,18,6.30
2018,01,30,15,19,6.30
2018,01,30,15,20,6.30
2018,01,30,15,21,6.40
2018,01,30,15,22,6.40
2018,01,30,15,23,6.40
2018,01,30,15,24,6.40
2018,01,30,15,25,6.50
2018,01,30,15,26,6.50
2018,01,30,15,27,6.60
2018,01,30,15,28,6.60
2018,01,30,15,29,6.60
2018,01,30,15,30,6.60
2018,01,30,15,31,6.70
2018,01,30,15,32,6.70
2018,01,30,15,33,6.70
2018,01,30,15,34,6.70
2018,01,30,15,35,6.70
2018,01,30,15,36,6.70
2018,01,30,15,37,6.70
2018,01,30,15,38,6.70
2018,01,30,15,39,6.70
2018,01,30,15,40,6.70
2018,01,30,15,41,6.60
2018,01,30,15,42,6.60
2018,01,30,15,43,6.60
2018,01,30,15,44,6.60
2018,01,30,15,45,6.60
2018,01,30,15,46,6.60
2018,01,30,15,47,6.60
2018,01,30,15,48,6.60
2018,01,30,15,49,6.60
2018,01,30,15,50,6.60
2018,01,30,15,51,6.60
2018,01,30,15,52,6.50
2018,01,30,15,53,6.50
2018,01,30,15,54,6.50
2018,01,30,15,55,6.50
2018,01,30,15,56,6.50
2018,01,30,15,57,6.50
2018,01,30,15,58,6.50
2018,01,30,15,59,6.40
2018,01,30,16,00,6.40
2018,01,30,16,01,6.40
2018,01,30,16,02,6.40
2018,01,30,16,03,6.40
2018,01,30,16,04,6.40
2018,01,30,16,05,6.40
2018,01,30,16,06,6.40
2018,01,30,16,07,6.40
2018,01,30,16,08,6.50
2018,01,30,16,09,6.50
2018,01,30,16,10,6.50
2018,01,30,16,11,6.50
2018,01,30,16,12,6.50
2018,01,30,16,13,6.50
2018,01,30,16,14,6.50
2018,01,30,16,15,6.50
2018,01,30,16,16,6.50
2018,01,30,16,17,6.50
2018,01,30,16,18,6.50
2018,01,30,16,19,6.50
2018,01,30,16,20,6.40
2018,01,30,16,21,6.30
2018,01,30,16,22,6.10
2018,01,30,16,23,6.00
2018,01,30,16,24,5.80
2018,01,30,16,25,5.70
2018,01,30,16,26,5.60
2018,01,30,16,27,5.60
2018,01,30,16,28,5.50
2018,01,30,16,29,5.50
2018,01,30,16,30,5.50
2018,01,30,16,31,5.50
2018,01,30,16,32,5.50
2018,01,30,16,33,5.50
2018,01,30,16,34,5.50
2018,01,30,16,35,5.50
2018,01,30,16,36,5.50
2018,01,30,16,37,5.50
2018,01,30,16,38,5.60
2018,01,30,16,39,5.60
2018,01,30,16,40,5.60
2018,01,30,16,41,5.60
2018,01,30,16,42,5.60
2018,01,30,16,43,5.60
2018,01,30,16,44,5.60
2018,01,30,16,45,5.60
2018,01,30,16,46,5.70
2018,01,30,16,47,5.70
2018,01,30,16,48,5.70
2018,01,30,16,49,5.70
2018,01,30,16,50,5.70
2018,01,30,16,51,5.80
2018,01,30,16,52,5.80
2018,01,30,16,53,5.80
2018,01,30,16,54,5.80
2018,01,30,16,55,5.80
2018,01,30,16,56,5.80
2018,01,30,16,57,5.80
2018,01,30,16,58,5.80
2018,01,30,16,59,5.80
2018,01,30,17,00,5.80
2018,01,30,17,01,5.80
2018,01,30,17,02,5.80
2018,01,30,17,03,5.80
2018,01,30,17,04,5.80
2018,01,30,17,05,5.80
2018,01,30,17,06,5.80
2018,01,30,17,07,5.80
2018,01,30,17,08,5.90
2018,01,30,17,09,5.80
2018,01,30,17,10,5.80
2018,01,30,17,11,5.80
2018,01,30,17,12,5.80
2018,01,30,17,13,5.80
2018,01,30,17,14,5.80
2018,01,30,17,15,5.80
2018,01,30,17,16,5.80
2018,01,30,17,17,5.80
2018,01,30,17,18,5.80
2018,01,30,17,19,5.80
2018,01,30,17,20,5.80
2018,01,30,17,21,5.80
2018,01,30,17,22,5.80
2018,01,30,17,23,5.80
2018,01,30,17,24,5.80
2018,01,30,17,25,5.80
2018,01,30,17,26,5.80
2018,01,30,17,27,5.70
2018,01,30,17,28,5.70
2018,01,30,17,29,5.70
2018,01,30,17,30,5.70
2018,01,30,17,31,5.70
2018,01,30,17,32,5.70
2018,01,30,17,33,5.70
2018,01,30,17,34,5.70
2018,01,30,17,35,5.70
2018,01,30,17,36,5.60
2018,01,30,17,37,5.60
2018,01,30,17,38,5.60
2018,01,30,17,39,5.60
2018,01,30,17,40,5.60
2018,01,30,17,41,5.60
2018,01,30,17,42,5.60
2018,01,30,17,43,5.60
2018,01,30,17,44,5.60
2018,01,30,17,45,5.60
2018,01,30,17,46,5.60
2018,01,30,17,47,5.60
2018,01,30,17,48,5.50
2018,01,30,17,49,5.60
2018,01,30,17,50,5.60
2018,01,30,17,51,5.60
2018,01,30,17,52,5.60
2018,01,30,17,53,5.60
2018,01,30,17,54,5.50
2018,01,30,17,55,5.50
2018,01,30,17,56,5.50
2018,01,30,17,57,5.50
2018,01,30,17,58,5.50
2018,01,30,17,59,5.50
2018,01,30,18,00,5.50
2018,01,30,18,01,5.50
2018,01,30,18,02,5.50
2018,01,30,18,03,5.40
2018,01,30,18,04,5.40
2018,01,30,18,05,5.40
2018,01,30,18,06,5.40
2018,01,30,18,07,5.40
2018,01,30,18,08,5.40
2018,01,30,18,09,5.40
2018,01,30,18,10,5.40
2018,01,30,18,11,5.30
2018,01,30,18,12,5.30
2018,01,30,18,13,5.30
2018,01,30,18,14,5.20
2018,01,30,18,15,5.20
2018,01,30,18,16,5.20
2018,01,30,18,17,5.10
2018,01,30,18,18,5.10
2018,01,30,18,19,5.10
2018,01,30,18,20,5.00
2018,01,30,18,21,5.00
2018,01,30,18,22,5.00
2018,01,30,18,23,4.90
2018,01,30,18,24,4.90
2018,01,30,18,25,4.90
2018,01,30,18,26,4.90
2018,01,30,18,27,4.90
2018,01,30,18,28,4.90
2018,01,30,18,29,4.90
2018,01,30,18,30,4.90
2018,01,30,18,31,4.90
2018,01,30,18,32,4.90
2018,01,30,18,33,4.90
2018,01,30,18,34,4.90
2018,01,30,18,35,4.90
2018,01,30,18,36,4.90
2018,01,30,18,37,4.90
2018,01,30,18,38,4.90
2018,01,30,18,39,4.90
2018,01,30,18,40,4.90
2018,01,30,18,41,4.90
2018,01,30,18,42,4.90
2018,01,30,18,43,4.80
2018,01,30,18,44,4.80
2018,01,30,18,45,4.70
2018,01,30,18,46,4.70
2018,01,30,18,47,4.60
2018,01,30,18,48,4.60
2018,01,30,18,49,4.50
2018,01,30,18,50,4.50
2018,01,30,18,51,4.50
2018,01,30,18,52,4.50
2018,01,30,18,53,4.40
2018,01,30,18,54,4.40
2018,01,30,18,55,4.40
2018,01,30,18,56,4.40
2018,01,30,18,57,4.40
2018,01,30,18,58,4.40
2018,01,30,18,59,4.30
2018,01,30,19,00,4.30
2018,01,30,19,01,4.30
2018,01,30,19,02,4.30
2018,01,30,19,03,4.30
2018,01,30,19,04,4.30
2018,01,30,19,05,4.30
2018,01,30,19,06,4.30
2018,01,30,19,07,4.30
2018,01,30,19,08,4.30
2018,01,30,19,09,4.30
2018,01,30,19,10,4.30
2018,01,30,19,11,4.30
2018,01,30,19,12,4.30
2018,01,30,19,13,4.40
2018,01,30,19,14,4.40
2018,01,30,19,15,4.40
2018,01,30,19,16,4.40
2018,01,30,19,17,4.40
2018,01,30,19,18,4.40
2018,01,30,19,19,4.40
2018,01,30,19,20,4.40
2018,01,30,19,21,4.40
2018,01,30,19,22,4.40
2018,01,30,19,23,4.40
2018,01,30,19,24,4.40
2018,01,30,19,25,4.40
2018,01,30,19,26,4.40
2018,01,30,19,27,4.40
2018,01,30,19,28,4.40
2018,01,30,19,29,4.40
2018,01,30,19,30,4.40
2018,01,30,19,31,4.40
2018,01,30,19,32,4.40
2018,01,30,19,33,4.40
2018,01,30,19,34,4.40
2018,01,30,19,35,4.40
2018,01,30,19,36,4.40
2018,01,30,19,37,4.40
2018,01,30,19,38,4.40
2018,01,30,19,39,4.40
2018,01,30,19,40,4.40
2018,01,30,19,41,4.40
2018,01,30,19,42,4.50
2018,01,30,19,43,4.50
2018,01,30,19,44,4.50
2018,01,30,19,45,4.50
2018,01,30,19,46,4.60
2018,01,30,19,47,4.50
2018,01,30,19,48,4.50
2018,01,30,19,49,4.50
2018,01,30,19,50,4.50
2018,01,30,19,51,4.50
2018,01,30,19,52,4.50
2018,01,30,19,53,4.50
2018,01,30,19,54,4.50
2018,01,30,19,55,4.40
2018,01,30,19,56,4.40
2018,01,30,19,57,4.40
2018,01,30,19,58,4.40
2018,01,30,19,59,4.40
2018,01,30,20,00,4.40
2018,01,30,20,01,4.40
2018,01,30,20,02,4.40
2018,01,30,20,03,4.40
2018,01,30,20,04,4.40
2018,01,30,20,05,4.30
2018,01,30,20,06,4.30
2018,01,30,20,07,4.30
2018,01,30,20,08,4.30
2018,01,30,20,09,4.30
2018,01,30,20,10,4.30
2018,01,30,20,11,4.30
2018,01,30,20,12,4.30
2018,01,30,20,13,4.30
2018,01,30,20,14,4.30
2018,01,30,20,15,4.30
2018,01,30,20,16,4.30
2018,01,30,20,17,4.30
2018,01,30,20,18,4.30
2018,01,30,20,19,4.30
2018,01,30,20,20,4.30
2018,01,30,20,21,4.30
2018,01,30,20,22,4.30
2018,01,30,20,23,4.30
2018,01,30,20,24,4.30
2018,01,30,20,25,4.30
2018,01,30,20,26,4.30
2018,01,30,20,27,4.30
2018,01,30,20,28,4.30
2018,01,30,20,29,4.30
2018,01,30,20,30,4.30
2018,01,30,20,31,4.30
2018,01,30,20,32,4.30
2018,01,30,20,33,4.30
2018,01,30,20,34,4.30
2018,01,30,20,35,4.30
2018,01,30,20,36,4.30
2018,01,30,20,37,4.30
2018,01,30,20,38,4.30
2018,01,30,20,39,4.30
2018,01,30,20,40,4.30
2018,01,30,20,41,4.30
2018,01,30,20,42,4.30
2018,01,30,20,43,4.30
2018,01,30,20,44,4.30
2018,01,30,20,45,4.30
2018,01,30,20,46,4.30
2018,01,30,20,47,4.30
2018,01,30,20,48,4.30
2018,01,30,20,49,4.30
2018,01,30,20,50,4.20
2018,01,30,20,51,4.20
2018,01,30,20,52,4.20
2018,01,30,20,53,4.20
2018,01,30,20,54,4.20
2018,01,30,20,55,4.20
2018,01,30,20,56,4.20
2018,01,30,20,57,4.20
2018,01,30,20,58,4.20
2018,01,30,20,59,4.20
2018,01,30,21,00,4.20
2018,01,30,21,01,4.10
2018,01,30,21,02,4.10
2018,01,30,21,03,4.10
2018,01,30,21,04,4.10
2018,01,30,21,05,4.10
2018,01,30,21,06,4.10
2018,01,30,21,07,4.00
2018,01,30,21,08,4.00
2018,01,30,21,09,4.00
2018,01,30,21,10,3.90
2018,01,30,21,11,3.90
2018,01,30,21,12,3.90
2018,01,30,21,13,3.90
2018,01,30,21,14,3.90
2018,01,30,21,15,3.90
2018,01,30,21,16,3.80
2018,01,30,21,17,3.80
2018,01,30,21,18,3.80
2018,01,30,21,19,3.80
2018,01,30,21,20,3.80
2018,01,30,21,21,3.80
2018,01,30,21,22,3.80
2018,01,30,21,23,3.80
2018,01,30,21,24,3.80
2018,01,30,21,25,3.80
2018,01,30,21,26,3.70
2018,01,30,21,27,3.70
2018,01,30,21,28,3.70
2018,01,30,21,29,3.70
2018,01,30,21,30,3.70
2018,01,30,21,31,3.70
2018,01,30,21,32,3.70
2018,01,30,21,33,3.70
2018,01,30,21,34,3.70
2018,01,30,21,35,3.70
2018,01,30,21,36,3.70
2018,01,30,21,37,3.70
2018,01,30,21,38,3.70
2018,01,30,21,39,3.70
2018,01,30,21,40,3.70
2018,01,30,21,41,3.80
2018,01,30,21,42,3.80
2018,01,30,21,43,3.80
2018,01,30,21,44,3.80
2018,01,30,21,45,3.80
2018,01,30,21,46,3.80
2018,01,30,21,47,3.90
2018,01,30,21,48,3.90
2018,01,30,21,49,4.00
2018,01,30,21,50,4.00
2018,01,30,21,51,4.10
2018,01,30,21,52,4.20
2018,01,30,21,53,4.20
2018,01,30,21,54,4.20
2018,01,30,21,55,4.30
2018,01,30,21,56,4.30
2018,01,30,21,57,4.30
2018,01,30,21,58,4.30
2018,01,30,21,59,4.30
2018,01,30,22,00,4.30
2018,01,30,22,01,4.30
2018,01,30,22,02,4.30
2018,01,30,22,03,4.30
2018,01,30,22,04,4.20
2018,01,30,22,05,4.20
2018,01,30,22,06,4.20
2018,01,30,22,07,4.20
2018,01,30,22,08,4.20
2018,01,30,22,09,4.20
2018,01,30,22,10,4.20
2018,01,30,22,11,4.10
2018,01,30,22,12,4.10
2018,01,30,22,13,4.10
2018,01,30,22,14,4.10
2018,01,30,22,15,4.10
2018,01,30,22,16,4.10
2018,01,30,22,17,4.10
2018,01,30,22,18,4.10
2018,01,30,22,19,4.10
2018,01,30,22,20,4.10
2018,01,30,22,21,4.10
2018,01,30,22,22,4.10
2018,01,30,22,23,4.00